Wetterdaten: Sonntag, 08.09.2013
Datum Zeit Temperatur Luftfeuchte Luftdruck Regen Wind Richtung Richtung Taupunkt Windchill Windben
08.09.2013 00:00 14,4 C 88 % 1019,2 hPa 0,0 l/m 0,0 km/h (0 Bft) N-NO 22 12,4 C 14,4 C 0,0 km/h (0 Bft)
08.09.2013 00:05 14,5 C 88 % 1019,2 hPa 0,0 l/m 0,0 km/h (0 Bft) N-NO 22 12,5 C 14,4 C 0,0 km/h (0 Bft)
08.09.2013 00:10 14,3 C 88 % 1019,2 hPa 0,0 l/m 0,0 km/h (0 Bft) W 270 12,3 C 14,5 C 0,0 km/h (0 Bft)
08.09.2013 00:15 14,4 C 89 % 1019,2 hPa 0,0 l/m 0,3 km/h (0 Bft) N-NO 22 12,6 C 14,4 C 2,1 km/h (1 Bft)
08.09.2013 00:20 14,7 C 89 % 1018,7 hPa 0,0 l/m 0,3 km/h (0 Bft) O 90 12,9 C 14,4 C 0,0 km/h (0 Bft)
08.09.2013 00:25 14,7 C 89 % 1018,7 hPa 0,0 l/m 0,5 km/h (0 Bft) NO 45 12,9 C 14,6 C 0,0 km/h (0 Bft)
08.09.2013 00:30 14,6 C 89 % 1018,7 hPa 0,0 l/m 0,3 km/h (0 Bft) S 180 12,8 C 14,7 C 2,1 km/h (1 Bft)
08.09.2013 00:35 14,5 C 89 % 1018,7 hPa 0,0 l/m 0,5 km/h (0 Bft) S-SO 157 12,7 C 14,7 C 0,0 km/h (0 Bft)
08.09.2013 00:40 14,7 C 89 % 1018,8 hPa 0,0 l/m 0,8 km/h (0 Bft) O-NO 67 12,9 C 14,6 C 2,4 km/h (1 Bft)
08.09.2013 00:45 14,8 C 89 % 1018,8 hPa 0,0 l/m 0,5 km/h (0 Bft) NO 45 13,0 C 14,7 C 0,0 km/h (0 Bft)
08.09.2013 00:50 14,6 C 89 % 1018,8 hPa 0,0 l/m 0,3 km/h (0 Bft) O-SO 112 12,8 C 14,7 C 0,0 km/h (0 Bft)
08.09.2013 00:55 14,5 C 89 % 1018,8 hPa 0,0 l/m 0,0 km/h (0 Bft) NO 45 12,7 C 14,6 C 0,0 km/h (0 Bft)
08.09.2013 01:00 14,4 C 89 % 1019,0 hPa 0,0 l/m 0,0 km/h (0 Bft) NO 45 12,6 C 14,5 C 0,0 km/h (0 Bft)
08.09.2013 01:05 14,3 C 89 % 1019,0 hPa 0,0 l/m 0,0 km/h (0 Bft) NO 45 12,5 C 14,4 C 0,0 km/h (0 Bft)
08.09.2013 01:10 14,4 C 89 % 1019,0 hPa 0,0 l/m 0,0 km/h (0 Bft) O 90 12,6 C 14,4 C 0,0 km/h (0 Bft)
08.09.2013 01:15 14,4 C 89 % 1019,0 hPa 0,0 l/m 0,2 km/h (0 Bft) O-SO 112 12,6 C 14,4 C 2,3 km/h (1 Bft)
08.09.2013 01:20 14,6 C 90 % 1018,6 hPa 0,0 l/m 0,5 km/h (0 Bft) S 180 13,0 C 14,6 C 3,7 km/h (1 Bft)
08.09.2013 01:25 14,5 C 90 % 1018,6 hPa 0,0 l/m 1,3 km/h (1 Bft) S 180 12,9 C 14,7 C 0,0 km/h (0 Bft)
08.09.2013 01:30 14,5 C 90 % 1018,6 hPa 0,0 l/m 1,3 km/h (1 Bft) O-SO 112 12,9 C 14,7 C 3,7 km/h (1 Bft)
08.09.2013 01:35 14,6 C 90 % 1018,6 hPa 0,0 l/m 0,2 km/h (0 Bft) O-SO 112 13,0 C 14,7 C 0,0 km/h (0 Bft)
08.09.2013 01:40 14,5 C 90 % 1018,6 hPa 0,0 l/m 0,0 km/h (0 Bft) N 360 12,9 C 14,6 C 0,0 km/h (0 Bft)
08.09.2013 01:45 14,5 C 90 % 1018,6 hPa 0,0 l/m 0,0 km/h (0 Bft) NO 45 12,9 C 14,6 C 0,0 km/h (0 Bft)
08.09.2013 01:50 14,7 C 90 % 1018,6 hPa 0,0 l/m 0,3 km/h (0 Bft) NO 45 13,1 C 14,6 C 0,0 km/h (0 Bft)
08.09.2013 01:55 14,9 C 91 % 1018,6 hPa 0,0 l/m 0,3 km/h (0 Bft) S-SO 157 13,4 C 14,8 C 0,0 km/h (0 Bft)
08.09.2013 02:00 15,0 C 91 % 1018,6 hPa 0,0 l/m 0,2 km/h (0 Bft) O 90 13,5 C 15,0 C 0,0 km/h (0 Bft)
08.09.2013 02:05 15,1 C 91 % 1018,6 hPa 0,0 l/m 0,0 km/h (0 Bft) S 180 13,6 C 15,1 C 0,0 km/h (0 Bft)
08.09.2013 02:10 15,1 C 91 % 1018,6 hPa 0,0 l/m 0,0 km/h (0 Bft) O-NO 67 13,6 C 15,1 C 0,0 km/h (0 Bft)
08.09.2013 02:15 15,1 C 91 % 1018,6 hPa 0,0 l/m 0,0 km/h (0 Bft) O-NO 67 13,6 C 15,1 C 1,6 km/h (1 Bft)
08.09.2013 02:20 15,1 C 91 % 1018,2 hPa 0,0 l/m 0,3 km/h (0 Bft) S 180 13,6 C 15,2 C 2,1 km/h (1 Bft)
08.09.2013 02:25 15,4 C 91 % 1018,2 hPa 0,0 l/m 1,0 km/h (0 Bft) NO 45 13,9 C 15,2 C 0,0 km/h (0 Bft)
08.09.2013 02:30 15,2 C 90 % 1018,2 hPa 0,0 l/m 1,0 km/h (0 Bft) W 270 13,6 C 15,1 C 0,0 km/h (0 Bft)
08.09.2013 02:35 15,2 C 90 % 1018,2 hPa 0,0 l/m 0,0 km/h (0 Bft) S 180 13,6 C 15,0 C 0,0 km/h (0 Bft)
08.09.2013 02:40 15,2 C 90 % 1018,2 hPa 0,0 l/m 0,6 km/h (0 Bft) NW 315 13,6 C 15,0 C 3,4 km/h (1 Bft)
08.09.2013 02:45 15,2 C 89 % 1018,2 hPa 0,0 l/m 1,3 km/h (1 Bft) O 90 13,4 C 15,0 C 0,0 km/h (0 Bft)
08.09.2013 02:50 15,3 C 90 % 1018,2 hPa 0,0 l/m 1,1 km/h (1 Bft) O 90 13,7 C 15,0 C 4,5 km/h (1 Bft)
08.09.2013 02:55 15,2 C 90 % 1018,2 hPa 0,0 l/m 0,8 km/h (0 Bft) NO 45 13,6 C 15,0 C 0,0 km/h (0 Bft)
08.09.2013 03:00 15,0 C 89 % 1018,1 hPa 0,0 l/m 1,3 km/h (1 Bft) SO 135 13,2 C 14,9 C 5,1 km/h (1 Bft)
08.09.2013 03:05 14,9 C 90 % 1018,1 hPa 0,0 l/m 1,0 km/h (0 Bft) N-NW 337 13,3 C 14,8 C 0,0 km/h (0 Bft)
08.09.2013 03:10 14,9 C 90 % 1018,1 hPa 0,0 l/m 0,3 km/h (0 Bft) NO 45 13,3 C 14,8 C 0,0 km/h (0 Bft)
08.09.2013 03:15 14,9 C 90 % 1018,1 hPa 0,0 l/m 0,5 km/h (0 Bft) NO 45 13,3 C 14,8 C 2,3 km/h (1 Bft)
08.09.2013 03:20 15,1 C 89 % 1018,2 hPa 0,0 l/m 1,0 km/h (0 Bft) NW 315 13,3 C 14,9 C 0,0 km/h (0 Bft)
08.09.2013 03:25 15,7 C 89 % 1018,2 hPa 0,0 l/m 0,8 km/h (0 Bft) NO 45 13,9 C 15,4 C 0,0 km/h (0 Bft)
08.09.2013 03:30 15,8 C 89 % 1018,2 hPa 0,0 l/m 0,5 km/h (0 Bft) NO 45 14,0 C 15,5 C 0,0 km/h (0 Bft)
08.09.2013 03:35 16,0 C 88 % 1018,2 hPa 0,0 l/m 0,5 km/h (0 Bft) O-NO 67 14,0 C 15,8 C 0,0 km/h (0 Bft)
08.09.2013 03:40 16,0 C 87 % 1018,2 hPa 0,0 l/m 0,8 km/h (0 Bft) N-NO 22 13,8 C 15,8 C 1,8 km/h (1 Bft)
08.09.2013 03:45 15,9 C 87 % 1018,2 hPa 0,0 l/m 0,6 km/h (0 Bft) NO 45 13,7 C 16,0 C 0,0 km/h (0 Bft)
08.09.2013 03:50 15,7 C 86 % 1018,2 hPa 0,0 l/m 0,3 km/h (0 Bft) NO 45 13,4 C 15,9 C 0,0 km/h (0 Bft)
08.09.2013 03:55 15,4 C 86 % 1018,2 hPa 0,0 l/m 0,0 km/h (0 Bft) W 270 13,1 C 15,8 C 0,0 km/h (0 Bft)
08.09.2013 04:00 15,2 C 86 % 1018,5 hPa 0,0 l/m 0,0 km/h (0 Bft) S-SW 202 12,9 C 15,7 C 0,0 km/h (0 Bft)
08.09.2013 04:05 15,5 C 86 % 1018,5 hPa 0,0 l/m 3,9 km/h (1 Bft) S 180 13,2 C 15,7 C 6,4 km/h (2 Bft)
08.09.2013 04:10 16,3 C 85 % 1018,5 hPa 0,0 l/m 7,2 km/h (2 Bft) S-SO 157 13,8 C 15,7 C 19,2 km/h (3 Bft)
08.09.2013 04:15 16,5 C 84 % 1018,5 hPa 0,0 l/m 7,7 km/h (2 Bft) S-SW 202 13,8 C 15,9 C 13,0 km/h (3 Bft)
08.09.2013 04:20 16,5 C 84 % 1019,2 hPa 0,0 l/m 8,7 km/h (2 Bft) S-SO 157 13,8 C 15,7 C 12,4 km/h (3 Bft)
08.09.2013 04:25 16,4 C 85 % 1019,2 hPa 0,0 l/m 10,5 km/h (2 Bft) S 180 13,9 C 14,8 C 17,1 km/h (3 Bft)
08.09.2013 04:30 16,3 C 85 % 1019,2 hPa 0,0 l/m 10,3 km/h (2 Bft) S 180 13,8 C 14,9 C 25,1 km/h (4 Bft)
08.09.2013 04:35 16,3 C 85 % 1019,2 hPa 0,0 l/m 11,4 km/h (2 Bft) S-SO 157 13,8 C 14,1 C 13,7 km/h (3 Bft)
08.09.2013 04:40 16,3 C 85 % 1019,2 hPa 0,0 l/m 11,9 km/h (2 Bft) S 180 13,8 C 13,8 C 18,0 km/h (3 Bft)
08.09.2013 04:45 16,3 C 83 % 1019,2 hPa 0,0 l/m 11,1 km/h (2 Bft) S 180 13,4 C 14,2 C 18,8 km/h (3 Bft)
08.09.2013 04:50 16,2 C 82 % 1019,2 hPa 0,0 l/m 11,4 km/h (2 Bft) S 180 13,1 C 14,1 C 8,4 km/h (2 Bft)
08.09.2013 04:55 16,1 C 81 % 1019,2 hPa 0,0 l/m 12,9 km/h (3 Bft) S-SW 202 12,8 C 13,2 C 7,4 km/h (2 Bft)
08.09.2013 05:00 16,0 C 81 % 1019,5 hPa 0,0 l/m 12,1 km/h (2 Bft) S 180 12,7 C 13,6 C 4,7 km/h (1 Bft)
08.09.2013 05:05 15,8 C 82 % 1019,5 hPa 0,0 l/m 10,6 km/h (2 Bft) S 180 12,7 C 14,0 C 15,1 km/h (3 Bft)
08.09.2013 05:10 15,7 C 82 % 1019,5 hPa 0,0 l/m 9,3 km/h (2 Bft) SO 135 12,6 C 14,5 C 15,3 km/h (3 Bft)
08.09.2013 05:15 15,6 C 82 % 1019,5 hPa 0,0 l/m 8,9 km/h (2 Bft) S 180 12,5 C 14,6 C 5,1 km/h (1 Bft)
08.09.2013 05:20 15,6 C 82 % 1019,6 hPa 0,0 l/m 9,0 km/h (2 Bft) S 180 12,5 C 14,5 C 19,6 km/h (3 Bft)
08.09.2013 05:25 15,5 C 81 % 1019,6 hPa 0,0 l/m 8,2 km/h (2 Bft) S 180 12,3 C 14,8 C 11,7 km/h (2 Bft)
08.09.2013 05:30 15,3 C 82 % 1019,6 hPa 0,0 l/m 8,4 km/h (2 Bft) S-SO 157 12,2 C 14,6 C 20,1 km/h (4 Bft)
08.09.2013 05:35 15,3 C 82 % 1019,6 hPa 0,0 l/m 7,9 km/h (2 Bft) N-NO 22 12,2 C 14,8 C 12,2 km/h (2 Bft)
08.09.2013 05:40 15,4 C 81 % 1019,8 hPa 0,0 l/m 8,0 km/h (2 Bft) SO 135 12,2 C 14,8 C 7,2 km/h (2 Bft)
08.09.2013 05:45 15,3 C 80 % 1019,8 hPa 0,0 l/m 7,9 km/h (2 Bft) O-NO 67 11,9 C 14,9 C 10,5 km/h (2 Bft)
08.09.2013 05:50 15,4 C 80 % 1019,8 hPa 0,0 l/m 6,3 km/h (2 Bft) O 90 12,0 C 15,6 C 10,0 km/h (2 Bft)
08.09.2013 05:55 15,3 C 80 % 1019,8 hPa 0,0 l/m 6,3 km/h (2 Bft) O 90 11,9 C 15,7 C 10,0 km/h (2 Bft)
08.09.2013 06:00 15,3 C 79 % 1019,9 hPa 0,0 l/m 6,3 km/h (2 Bft) S-SO 157 11,7 C 15,7 C 8,7 km/h (2 Bft)
08.09.2013 06:05 15,2 C 79 % 1019,9 hPa 0,0 l/m 4,2 km/h (1 Bft) S-SO 157 11,6 C 15,6 C 2,9 km/h (1 Bft)
08.09.2013 06:10 15,0 C 79 % 1019,9 hPa 0,0 l/m 3,1 km/h (1 Bft) O-SO 112 11,4 C 15,5 C 4,8 km/h (1 Bft)
08.09.2013 06:15 14,8 C 79 % 1019,9 hPa 0,0 l/m 3,4 km/h (1 Bft) S-SW 202 11,2 C 15,4 C 3,7 km/h (1 Bft)
08.09.2013 06:20 14,8 C 79 % 1020,0 hPa 0,0 l/m 4,0 km/h (1 Bft) S-SW 202 11,2 C 15,4 C 10,8 km/h (2 Bft)
08.09.2013 06:25 14,8 C 79 % 1020,0 hPa 0,0 l/m 3,7 km/h (1 Bft) S 180 11,2 C 15,4 C 5,8 km/h (2 Bft)
08.09.2013 06:30 14,7 C 79 % 1020,0 hPa 0,0 l/m 3,9 km/h (1 Bft) S 180 11,1 C 15,3 C 3,5 km/h (1 Bft)
08.09.2013 06:35 14,8 C 78 % 1020,0 hPa 0,0 l/m 5,5 km/h (1 Bft) S 180 11,0 C 15,3 C 10,5 km/h (2 Bft)
08.09.2013 06:40 14,7 C 78 % 1020,4 hPa 0,0 l/m 6,0 km/h (2 Bft) W-SW 247 10,9 C 15,3 C 10,1 km/h (2 Bft)
08.09.2013 06:45 14,7 C 78 % 1020,4 hPa 0,0 l/m 5,1 km/h (1 Bft) S-SW 202 10,9 C 15,3 C 4,8 km/h (1 Bft)
08.09.2013 06:50 14,8 C 78 % 1020,4 hPa 0,0 l/m 5,1 km/h (1 Bft) W-SW 247 11,0 C 15,2 C 8,0 km/h (2 Bft)
08.09.2013 06:55 14,8 C 77 % 1020,4 hPa 0,0 l/m 6,1 km/h (2 Bft) S-SW 202 10,8 C 15,3 C 7,2 km/h (2 Bft)
08.09.2013 07:00 14,8 C 77 % 1020,6 hPa 0,0 l/m 7,1 km/h (2 Bft) S-SO 157 10,8 C 14,9 C 6,8 km/h (2 Bft)
08.09.2013 07:05 14,8 C 77 % 1020,6 hPa 0,0 l/m 6,4 km/h (2 Bft) S-SO 157 10,8 C 15,4 C 6,1 km/h (2 Bft)
08.09.2013 07:10 14,8 C 77 % 1020,6 hPa 0,0 l/m 5,5 km/h (1 Bft) S-SO 157 10,8 C 15,4 C 5,8 km/h (2 Bft)
08.09.2013 07:15 15,0 C 76 % 1020,6 hPa 0,0 l/m 5,3 km/h (1 Bft) S-SW 202 10,8 C 15,5 C 4,8 km/h (1 Bft)
08.09.2013 07:20 15,2 C 76 % 1020,9 hPa 0,0 l/m 7,2 km/h (2 Bft) S-SO 157 11,0 C 15,1 C 9,0 km/h (2 Bft)
08.09.2013 07:25 15,2 C 76 % 1020,9 hPa 0,0 l/m 6,1 km/h (2 Bft) S 180 11,0 C 15,7 C 9,7 km/h (2 Bft)
08.09.2013 07:30 15,2 C 76 % 1020,9 hPa 0,0 l/m 5,5 km/h (1 Bft) S-SO 157 11,0 C 15,7 C 5,8 km/h (2 Bft)
08.09.2013 07:35 15,2 C 75 % 1020,9 hPa 0,0 l/m 6,1 km/h (2 Bft) S 180 10,8 C 15,8 C 10,8 km/h (2 Bft)
08.09.2013 07:40 15,2 C 75 % 1021,1 hPa 0,0 l/m 6,1 km/h (2 Bft) S-SW 202 10,8 C 15,8 C 5,6 km/h (1 Bft)
08.09.2013 07:45 15,3 C 75 % 1021,1 hPa 0,0 l/m 6,0 km/h (2 Bft) S 180 10,9 C 15,8 C 8,2 km/h (2 Bft)
08.09.2013 07:50 15,3 C 74 % 1021,1 hPa 0,0 l/m 6,6 km/h (2 Bft) O-SO 112 10,7 C 15,8 C 5,0 km/h (1 Bft)
08.09.2013 07:55 15,4 C 74 % 1021,1 hPa 0,0 l/m 6,4 km/h (2 Bft) S-SW 202 10,8 C 15,9 C 11,3 km/h (2 Bft)
08.09.2013 08:00 15,5 C 74 % 1021,3 hPa 0,0 l/m 5,0 km/h (1 Bft) SO 135 10,9 C 16,0 C 9,3 km/h (2 Bft)
08.09.2013 08:05 15,8 C 74 % 1021,3 hPa 0,0 l/m 4,8 km/h (1 Bft) S-SO 157 11,2 C 16,2 C 6,6 km/h (2 Bft)
08.09.2013 08:10 15,9 C 74 % 1021,3 hPa 0,0 l/m 3,4 km/h (1 Bft) W-SW 247 11,3 C 16,6 C 3,1 km/h (1 Bft)
08.09.2013 08:15 17,5 C 72 % 1021,3 hPa 0,0 l/m 1,6 km/h (1 Bft) S-SO 157 12,4 C 16,8 C 4,3 km/h (1 Bft)
08.09.2013 08:20 19,2 C 66 % 1021,4 hPa 0,0 l/m 2,4 km/h (1 Bft) S 180 12,7 C 17,9 C 6,0 km/h (2 Bft)
08.09.2013 08:25 19,7 C 63 % 1021,4 hPa 0,0 l/m 4,0 km/h (1 Bft) S 180 12,5 C 19,0 C 8,0 km/h (2 Bft)
08.09.2013 08:30 20,5 C 61 % 1021,4 hPa 0,0 l/m 4,8 km/h (1 Bft) S-SO 157 12,7 C 19,5 C 7,1 km/h (2 Bft)
08.09.2013 08:35 21,4 C 56 % 1021,4 hPa 0,0 l/m 5,8 km/h (2 Bft) S 180 12,3 C 20,3 C 8,0 km/h (2 Bft)
08.09.2013 08:40 20,6 C 58 % 1021,6 hPa 0,0 l/m 5,3 km/h (1 Bft) SO 135 12,0 C 20,5 C 3,9 km/h (1 Bft)
08.09.2013 08:45 21,3 C 58 % 1021,6 hPa 0,0 l/m 4,8 km/h (1 Bft) S 180 12,7 C 20,1 C 8,0 km/h (2 Bft)
08.09.2013 08:50 19,8 C 59 % 1021,6 hPa 0,0 l/m 4,7 km/h (1 Bft) S 180 11,6 C 20,6 C 2,3 km/h (1 Bft)
08.09.2013 08:55 19,8 C 59 % 1021,6 hPa 0,0 l/m 3,4 km/h (1 Bft) S 180 11,6 C 20,2 C 4,3 km/h (1 Bft)
08.09.2013 09:00 20,3 C 58 % 1021,8 hPa 0,0 l/m 3,4 km/h (1 Bft) SO 135 11,8 C 19,9 C 9,2 km/h (2 Bft)
08.09.2013 09:05 22,3 C 55 % 1021,8 hPa 0,0 l/m 5,1 km/h (1 Bft) SO 135 12,8 C 20,7 C 13,4 km/h (3 Bft)
08.09.2013 09:10 23,0 C 53 % 1021,8 hPa 0,0 l/m 5,3 km/h (1 Bft) S-SO 157 12,9 C 21,6 C 4,8 km/h (1 Bft)
08.09.2013 09:15 20,5 C 56 % 1021,8 hPa 0,0 l/m 4,2 km/h (1 Bft) S 180 11,4 C 21,5 C 2,1 km/h (1 Bft)
08.09.2013 09:20 19,7 C 58 % 1022,3 hPa 0,0 l/m 3,7 km/h (1 Bft) SO 135 11,2 C 21,1 C 5,1 km/h (1 Bft)
08.09.2013 09:25 20,1 C 59 % 1022,3 hPa 0,0 l/m 2,9 km/h (1 Bft) S-SO 157 11,8 C 20,2 C 0,0 km/h (0 Bft)
08.09.2013 09:30 20,8 C 57 % 1022,3 hPa 0,0 l/m 3,2 km/h (1 Bft) S 180 12,0 C 20,7 C 4,0 km/h (1 Bft)
08.09.2013 09:35 20,6 C 58 % 1022,3 hPa 0,0 l/m 3,2 km/h (1 Bft) S-SW 202 12,0 C 20,6 C 2,6 km/h (1 Bft)
08.09.2013 09:40 20,6 C 58 % 1022,3 hPa 0,0 l/m 2,6 km/h (1 Bft) S 180 12,0 C 20,8 C 3,9 km/h (1 Bft)
08.09.2013 09:45 22,8 C 57 % 1022,3 hPa 0,0 l/m 2,6 km/h (1 Bft) SO 135 13,8 C 21,2 C 4,2 km/h (1 Bft)
08.09.2013 09:50 22,0 C 53 % 1022,3 hPa 0,0 l/m 3,7 km/h (1 Bft) SO 135 12,0 C 22,4 C 6,1 km/h (2 Bft)
08.09.2013 09:55 20,6 C 56 % 1022,3 hPa 0,0 l/m 5,0 km/h (1 Bft) S-SO 157 11,5 C 21,8 C 6,4 km/h (2 Bft)
08.09.2013 10:00 20,4 C 58 % 1022,7 hPa 0,0 l/m 4,0 km/h (1 Bft) S 180 11,9 C 21,6 C 4,2 km/h (1 Bft)
08.09.2013 10:05 21,1 C 57 % 1022,7 hPa 0,0 l/m 3,9 km/h (1 Bft) S 180 12,2 C 21,5 C 3,4 km/h (1 Bft)
08.09.2013 10:10 21,9 C 56 % 1022,7 hPa 0,0 l/m 4,2 km/h (1 Bft) W-SW 247 12,7 C 22,1 C 4,2 km/h (1 Bft)
08.09.2013 10:15 22,4 C 53 % 1022,7 hPa 0,0 l/m 3,5 km/h (1 Bft) S-SO 157 12,3 C 22,7 C 3,1 km/h (1 Bft)
08.09.2013 10:20 22,6 C 52 % 1023,3 hPa 0,0 l/m 3,4 km/h (1 Bft) S-SO 157 12,2 C 23,3 C 2,1 km/h (1 Bft)
08.09.2013 10:25 21,8 C 54 % 1023,3 hPa 0,0 l/m 3,2 km/h (1 Bft) S-SO 157 12,1 C 23,2 C 6,3 km/h (2 Bft)
08.09.2013 10:30 22,0 C 52 % 1023,3 hPa 0,0 l/m 3,9 km/h (1 Bft) S 180 11,7 C 23,1 C 7,4 km/h (2 Bft)
08.09.2013 10:35 21,2 C 52 % 1023,3 hPa 0,0 l/m 4,8 km/h (1 Bft) S-SW 202 10,9 C 22,5 C 7,6 km/h (2 Bft)
08.09.2013 10:40 21,6 C 53 % 1023,0 hPa 0,0 l/m 4,7 km/h (1 Bft) SW 225 11,6 C 22,3 C 1,8 km/h (1 Bft)
08.09.2013 10:45 22,3 C 51 % 1023,0 hPa 0,0 l/m 4,3 km/h (1 Bft) S 180 11,7 C 22,9 C 3,7 km/h (1 Bft)
08.09.2013 10:50 21,9 C 49 % 1023,0 hPa 0,0 l/m 4,0 km/h (1 Bft) S-SO 157 10,7 C 22,9 C 3,5 km/h (1 Bft)
08.09.2013 10:55 22,9 C 49 % 1023,0 hPa 0,0 l/m 4,0 km/h (1 Bft) S 180 11,6 C 23,0 C 2,9 km/h (1 Bft)
08.09.2013 11:00 23,3 C 47 % 1023,2 hPa 0,0 l/m 4,0 km/h (1 Bft) S 180 11,3 C 22,9 C 4,3 km/h (1 Bft)
08.09.2013 11:05 24,3 C 44 % 1023,2 hPa 0,0 l/m 4,2 km/h (1 Bft) W 270 11,3 C 23,0 C 1,8 km/h (1 Bft)
08.09.2013 11:10 24,3 C 42 % 1023,2 hPa 0,0 l/m 3,4 km/h (1 Bft) W 270 10,6 C 23,4 C 1,9 km/h (1 Bft)
08.09.2013 11:15 24,6 C 41 % 1023,2 hPa 0,0 l/m 3,4 km/h (1 Bft) S-SO 157 10,5 C 23,3 C 4,5 km/h (1 Bft)
08.09.2013 11:20 24,3 C 42 % 1023,5 hPa 0,0 l/m 4,2 km/h (1 Bft) S 180 10,6 C 23,2 C 4,2 km/h (1 Bft)
08.09.2013 11:25 23,1 C 43 % 1023,5 hPa 0,0 l/m 2,9 km/h (1 Bft) O 90 9,8 C 23,6 C 0,0 km/h (0 Bft)
08.09.2013 11:30 21,9 C 48 % 1023,5 hPa 0,0 l/m 1,4 km/h (1 Bft) S 180 10,4 C 23,9 C 0,0 km/h (0 Bft)
08.09.2013 11:35 23,8 C 45 % 1023,5 hPa 0,0 l/m 0,5 km/h (0 Bft) W-NW 292 11,1 C 24,3 C 2,1 km/h (1 Bft)
08.09.2013 11:40 24,5 C 43 % 1023,4 hPa 0,0 l/m 1,1 km/h (1 Bft) S 180 11,1 C 25,5 C 2,7 km/h (1 Bft)
08.09.2013 11:45 23,2 C 45 % 1023,4 hPa 0,0 l/m 1,6 km/h (1 Bft) W-NW 292 10,6 C 25,5 C 0,0 km/h (0 Bft)
08.09.2013 11:50 23,2 C 48 % 1023,4 hPa 0,0 l/m 1,4 km/h (1 Bft) S-SW 202 11,6 C 25,4 C 3,7 km/h (1 Bft)
08.09.2013 11:55 23,2 C 46 % 1023,4 hPa 0,0 l/m 0,8 km/h (0 Bft) W-SW 247 10,9 C 25,9 C 2,9 km/h (1 Bft)
08.09.2013 12:00 22,9 C 49 % 1023,3 hPa 0,0 l/m 1,8 km/h (1 Bft) W-NW 292 11,6 C 25,6 C 4,8 km/h (1 Bft)
08.09.2013 12:05 22,3 C 49 % 1023,3 hPa 0,0 l/m 2,4 km/h (1 Bft) N 360 11,1 C 24,8 C 5,5 km/h (1 Bft)
08.09.2013 12:10 22,2 C 49 % 1023,3 hPa 0,0 l/m 2,3 km/h (1 Bft) O 90 11,0 C 24,2 C 0,0 km/h (0 Bft)
08.09.2013 12:15 24,8 C 45 % 1023,3 hPa 0,0 l/m 2,7 km/h (1 Bft) W-NW 292 12,0 C 25,4 C 4,3 km/h (1 Bft)
08.09.2013 12:20 25,1 C 45 % 1023,2 hPa 0,0 l/m 2,7 km/h (1 Bft) S-SO 157 12,3 C 26,7 C 3,5 km/h (1 Bft)
08.09.2013 12:25 24,0 C 47 % 1023,2 hPa 0,0 l/m 3,1 km/h (1 Bft) S 180 12,0 C 27,1 C 3,4 km/h (1 Bft)
08.09.2013 12:30 22,9 C 48 % 1023,2 hPa 0,0 l/m 3,2 km/h (1 Bft) O-SO 112 11,3 C 26,3 C 2,6 km/h (1 Bft)
08.09.2013 12:35 22,4 C 51 % 1023,2 hPa 0,0 l/m 3,1 km/h (1 Bft) W 270 11,8 C 25,3 C 4,8 km/h (1 Bft)
08.09.2013 12:40 21,6 C 52 % 1023,2 hPa 0,0 l/m 2,9 km/h (1 Bft) N 360 11,3 C 24,6 C 4,3 km/h (1 Bft)
08.09.2013 12:45 21,9 C 53 % 1023,2 hPa 0,0 l/m 3,2 km/h (1 Bft) W-SW 247 11,9 C 23,7 C 3,5 km/h (1 Bft)
08.09.2013 12:50 22,0 C 53 % 1023,2 hPa 0,0 l/m 3,1 km/h (1 Bft) SO 135 12,0 C 23,6 C 0,0 km/h (0 Bft)
08.09.2013 12:55 22,3 C 52 % 1023,2 hPa 0,0 l/m 2,4 km/h (1 Bft) W 270 12,0 C 23,9 C 3,2 km/h (1 Bft)
08.09.2013 13:00 22,4 C 53 % 1023,3 hPa 0,0 l/m 2,3 km/h (1 Bft) NW 315 12,3 C 23,9 C 4,2 km/h (1 Bft)
08.09.2013 13:05 22,0 C 53 % 1023,3 hPa 0,0 l/m 4,2 km/h (1 Bft) W-SW 247 12,0 C 23,7 C 4,0 km/h (1 Bft)
08.09.2013 13:10 22,1 C 54 % 1023,3 hPa 0,0 l/m 4,7 km/h (1 Bft) S 180 12,3 C 23,4 C 6,4 km/h (2 Bft)
08.09.2013 13:15 22,3 C 55 % 1023,3 hPa 0,0 l/m 4,0 km/h (1 Bft) W-SW 247 12,8 C 23,4 C 3,9 km/h (1 Bft)
08.09.2013 13:20 22,6 C 54 % 1023,1 hPa 0,0 l/m 3,1 km/h (1 Bft) W 270 12,8 C 23,8 C 3,1 km/h (1 Bft)
08.09.2013 13:25 23,6 C 49 % 1023,1 hPa 0,0 l/m 2,9 km/h (1 Bft) W-SW 247 12,2 C 24,9 C 3,2 km/h (1 Bft)
08.09.2013 13:30 23,1 C 51 % 1023,1 hPa 0,0 l/m 3,5 km/h (1 Bft) S 180 12,4 C 25,3 C 2,9 km/h (1 Bft)
08.09.2013 13:35 22,2 C 53 % 1023,1 hPa 0,0 l/m 3,7 km/h (1 Bft) S-SO 157 12,2 C 24,7 C 5,0 km/h (1 Bft)
08.09.2013 13:40 22,0 C 54 % 1023,3 hPa 0,0 l/m 3,9 km/h (1 Bft) N 360 12,3 C 23,9 C 3,5 km/h (1 Bft)
08.09.2013 13:45 22,1 C 53 % 1023,3 hPa 0,0 l/m 4,3 km/h (1 Bft) W-NW 292 12,1 C 23,8 C 4,5 km/h (1 Bft)
08.09.2013 13:50 22,2 C 54 % 1023,3 hPa 0,0 l/m 3,4 km/h (1 Bft) N 360 12,4 C 23,8 C 7,2 km/h (2 Bft)
08.09.2013 13:55 21,7 C 55 % 1023,3 hPa 0,0 l/m 3,4 km/h (1 Bft) S-SW 202 12,3 C 23,4 C 2,7 km/h (1 Bft)
08.09.2013 14:00 21,5 C 55 % 1023,1 hPa 0,0 l/m 3,7 km/h (1 Bft) W-SW 247 12,1 C 23,2 C 4,5 km/h (1 Bft)
08.09.2013 14:05 21,7 C 56 % 1023,1 hPa 0,0 l/m 3,4 km/h (1 Bft) S-SW 202 12,5 C 22,9 C 5,8 km/h (2 Bft)
08.09.2013 14:10 21,8 C 56 % 1023,1 hPa 0,0 l/m 3,1 km/h (1 Bft) S 180 12,6 C 22,9 C 1,9 km/h (1 Bft)
08.09.2013 14:15 21,5 C 56 % 1023,1 hPa 0,0 l/m 3,1 km/h (1 Bft) W-NW 292 12,3 C 23,0 C 5,5 km/h (1 Bft)
08.09.2013 14:20 21,5 C 57 % 1023,1 hPa 0,0 l/m 2,9 km/h (1 Bft) S 180 12,6 C 22,7 C 2,4 km/h (1 Bft)
08.09.2013 14:25 21,1 C 56 % 1023,1 hPa 0,0 l/m 3,7 km/h (1 Bft) W-NW 292 12,0 C 22,2 C 4,5 km/h (1 Bft)
08.09.2013 14:30 21,0 C 57 % 1023,1 hPa 0,0 l/m 3,1 km/h (1 Bft) S 180 12,1 C 22,0 C 3,1 km/h (1 Bft)
08.09.2013 14:35 20,6 C 59 % 1023,1 hPa 0,0 l/m 2,4 km/h (1 Bft) S 180 12,3 C 21,8 C 4,0 km/h (1 Bft)
08.09.2013 14:40 20,2 C 60 % 1022,6 hPa 0,0 l/m 2,3 km/h (1 Bft) S 180 12,2 C 21,4 C 2,3 km/h (1 Bft)
08.09.2013 14:45 19,9 C 61 % 1022,6 hPa 0,0 l/m 2,3 km/h (1 Bft) W-SW 247 12,2 C 21,0 C 4,8 km/h (1 Bft)
08.09.2013 14:50 19,8 C 61 % 1022,6 hPa 0,0 l/m 2,4 km/h (1 Bft) S 180 12,1 C 20,8 C 3,2 km/h (1 Bft)
08.09.2013 14:55 19,6 C 64 % 1022,6 hPa 0,0 l/m 2,6 km/h (1 Bft) SO 135 12,6 C 20,6 C 2,1 km/h (1 Bft)
08.09.2013 15:00 19,5 C 64 % 1022,4 hPa 0,0 l/m 2,4 km/h (1 Bft) S 180 12,5 C 20,4 C 1,8 km/h (1 Bft)
08.09.2013 15:05 19,2 C 66 % 1022,4 hPa 0,0 l/m 2,1 km/h (1 Bft) S-SO 157 12,7 C 20,1 C 1,6 km/h (1 Bft)
08.09.2013 15:10 19,2 C 65 % 1022,4 hPa 0,0 l/m 2,1 km/h (1 Bft) S-SO 157 12,5 C 20,1 C 3,1 km/h (1 Bft)
08.09.2013 15:15 19,3 C 67 % 1022,4 hPa 0,0 l/m 2,4 km/h (1 Bft) S-SW 202 13,0 C 20,1 C 5,3 km/h (1 Bft)
08.09.2013 15:20 19,3 C 67 % 1022,4 hPa 0,0 l/m 2,6 km/h (1 Bft) S-SW 202 13,0 C 20,1 C 3,7 km/h (1 Bft)
08.09.2013 15:25 19,2 C 67 % 1022,4 hPa 0,0 l/m 3,1 km/h (1 Bft) S 180 12,9 C 20,0 C 4,2 km/h (1 Bft)
08.09.2013 15:30 18,9 C 68 % 1022,4 hPa 0,0 l/m 2,3 km/h (1 Bft) O 90 12,9 C 19,9 C 1,8 km/h (1 Bft)
08.09.2013 15:35 19,1 C 69 % 1022,4 hPa 0,0 l/m 1,4 km/h (1 Bft) O-SO 112 13,3 C 19,9 C 2,6 km/h (1 Bft)
08.09.2013 15:40 19,5 C 69 % 1022,3 hPa 0,0 l/m 1,8 km/h (1 Bft) S 180 13,7 C 20,1 C 3,4 km/h (1 Bft)
08.09.2013 15:45 19,9 C 68 % 1022,3 hPa 0,0 l/m 2,4 km/h (1 Bft) SO 135 13,8 C 20,5 C 2,7 km/h (1 Bft)
08.09.2013 15:50 20,4 C 66 % 1022,3 hPa 0,0 l/m 2,1 km/h (1 Bft) SO 135 13,8 C 20,8 C 2,9 km/h (1 Bft)
08.09.2013 15:55 20,2 C 65 % 1022,3 hPa 0,0 l/m 2,6 km/h (1 Bft) W-SW 247 13,4 C 20,9 C 3,5 km/h (1 Bft)
08.09.2013 16:00 19,5 C 66 % 1022,4 hPa 0,0 l/m 3,9 km/h (1 Bft) S 180 13,0 C 20,6 C 6,4 km/h (2 Bft)
08.09.2013 16:05 19,1 C 68 % 1022,4 hPa 0,0 l/m 4,3 km/h (1 Bft) S 180 13,1 C 20,0 C 6,1 km/h (2 Bft)
08.09.2013 16:10 18,8 C 68 % 1022,4 hPa 0,0 l/m 3,9 km/h (1 Bft) S-SO 157 12,8 C 19,7 C 4,5 km/h (1 Bft)
08.09.2013 16:15 18,6 C 68 % 1022,4 hPa 0,0 l/m 3,4 km/h (1 Bft) S 180 12,6 C 19,3 C 3,5 km/h (1 Bft)
08.09.2013 16:20 18,5 C 69 % 1021,9 hPa 0,0 l/m 2,3 km/h (1 Bft) S 180 12,7 C 19,3 C 0,0 km/h (0 Bft)
08.09.2013 16:25 18,4 C 69 % 1021,9 hPa 0,0 l/m 1,0 km/h (0 Bft) SO 135 12,6 C 19,1 C 0,0 km/h (0 Bft)
08.09.2013 16:30 18,3 C 69 % 1021,9 hPa 0,0 l/m 0,5 km/h (0 Bft) O-SO 112 12,5 C 19,1 C 0,0 km/h (0 Bft)
08.09.2013 16:35 18,2 C 70 % 1021,9 hPa 0,0 l/m 1,1 km/h (1 Bft) S-SO 157 12,6 C 19,0 C 4,8 km/h (1 Bft)
08.09.2013 16:40 18,1 C 70 % 1022,2 hPa 0,0 l/m 1,6 km/h (1 Bft) S 180 12,5 C 18,9 C 1,8 km/h (1 Bft)
08.09.2013 16:45 18,0 C 71 % 1022,2 hPa 0,0 l/m 0,8 km/h (0 Bft) S 180 12,7 C 18,7 C 0,0 km/h (0 Bft)
08.09.2013 16:50 18,0 C 71 % 1022,2 hPa 0,0 l/m 0,5 km/h (0 Bft) SO 135 12,7 C 18,6 C 2,4 km/h (1 Bft)
08.09.2013 16:55 17,9 C 72 % 1022,2 hPa 0,0 l/m 1,4 km/h (1 Bft) SO 135 12,8 C 18,5 C 1,8 km/h (1 Bft)
08.09.2013 17:00 17,8 C 72 % 1021,9 hPa 0,0 l/m 1,4 km/h (1 Bft) S 180 12,7 C 18,5 C 2,4 km/h (1 Bft)
08.09.2013 17:05 17,9 C 72 % 1021,9 hPa 0,0 l/m 1,1 km/h (1 Bft) S-SW 202 12,8 C 18,4 C 2,9 km/h (1 Bft)
08.09.2013 17:10 17,9 C 72 % 1021,9 hPa 0,0 l/m 1,3 km/h (1 Bft) W-SW 247 12,8 C 18,3 C 2,9 km/h (1 Bft)
08.09.2013 17:15 17,8 C 71 % 1021,9 hPa 0,0 l/m 0,8 km/h (0 Bft) S-SO 157 12,5 C 18,3 C 0,0 km/h (0 Bft)
08.09.2013 17:20 17,7 C 72 % 1021,9 hPa 0,0 l/m 1,0 km/h (0 Bft) S-SW 202 12,6 C 18,2 C 0,0 km/h (0 Bft)
08.09.2013 17:25 17,5 C 72 % 1021,9 hPa 0,0 l/m 1,1 km/h (1 Bft) S 180 12,4 C 18,0 C 1,6 km/h (1 Bft)
08.09.2013 17:30 17,4 C 72 % 1021,9 hPa 0,0 l/m 0,6 km/h (0 Bft) O-SO 112 12,3 C 17,9 C 0,0 km/h (0 Bft)
08.09.2013 17:35 17,3 C 73 % 1021,9 hPa 0,0 l/m 0,8 km/h (0 Bft) S 180 12,4 C 17,8 C 2,6 km/h (1 Bft)
08.09.2013 17:40 17,3 C 74 % 1021,9 hPa 0,0 l/m 1,4 km/h (1 Bft) S-SO 157 12,6 C 17,9 C 1,8 km/h (1 Bft)
08.09.2013 17:45 17,1 C 74 % 1021,9 hPa 0,0 l/m 1,3 km/h (1 Bft) S 180 12,4 C 17,7 C 1,6 km/h (1 Bft)
08.09.2013 17:50 17,1 C 74 % 1021,9 hPa 0,0 l/m 0,8 km/h (0 Bft) O 90 12,4 C 17,7 C 1,9 km/h (1 Bft)
08.09.2013 17:55 17,0 C 74 % 1021,9 hPa 0,0 l/m 1,1 km/h (1 Bft) S-SO 157 12,3 C 17,6 C 5,5 km/h (1 Bft)
08.09.2013 18:00 17,0 C 74 % 1021,5 hPa 0,0 l/m 1,0 km/h (0 Bft) SW 225 12,3 C 17,5 C 2,7 km/h (1 Bft)
08.09.2013 18:05 17,0 C 75 % 1021,5 hPa 0,0 l/m 0,8 km/h (0 Bft) S-SO 157 12,5 C 17,5 C 3,1 km/h (1 Bft)
08.09.2013 18:10 17,1 C 75 % 1021,5 hPa 0,0 l/m 0,8 km/h (0 Bft) S-SO 157 12,6 C 17,5 C 2,3 km/h (1 Bft)
08.09.2013 18:15 16,9 C 74 % 1021,5 hPa 0,0 l/m 1,1 km/h (1 Bft) S-SW 202 12,2 C 17,5 C 0,0 km/h (0 Bft)
08.09.2013 18:20 16,8 C 74 % 1021,4 hPa 0,0 l/m 0,6 km/h (0 Bft) S 180 12,1 C 17,5 C 0,0 km/h (0 Bft)
08.09.2013 18:25 16,8 C 75 % 1021,4 hPa 0,0 l/m 0,0 km/h (0 Bft) S 180 12,3 C 17,4 C 0,0 km/h (0 Bft)
08.09.2013 18:30 16,8 C 75 % 1021,4 hPa 0,0 l/m 0,2 km/h (0 Bft) S-SO 157 12,3 C 17,3 C 3,1 km/h (1 Bft)
08.09.2013 18:35 16,8 C 75 % 1021,4 hPa 0,0 l/m 0,3 km/h (0 Bft) O-SO 112 12,3 C 17,2 C 0,0 km/h (0 Bft)
08.09.2013 18:40 16,7 C 75 % 1021,2 hPa 0,0 l/m 0,3 km/h (0 Bft) O-SO 112 12,2 C 17,2 C 0,0 km/h (0 Bft)
08.09.2013 18:45 16,6 C 75 % 1021,2 hPa 0,0 l/m 0,2 km/h (0 Bft) SO 135 12,1 C 17,0 C 0,0 km/h (0 Bft)
08.09.2013 18:50 16,5 C 75 % 1021,2 hPa 0,0 l/m 0,2 km/h (0 Bft) S-SW 202 12,1 C 17,0 C 0,0 km/h (0 Bft)
08.09.2013 18:55 16,4 C 76 % 1021,2 hPa 0,0 l/m 0,0 km/h (0 Bft) S 180 12,2 C 16,9 C 0,0 km/h (0 Bft)
08.09.2013 19:00 16,4 C 76 % 1021,3 hPa 0,0 l/m 0,3 km/h (0 Bft) O-SO 112 12,2 C 16,8 C 0,0 km/h (0 Bft)
08.09.2013 19:05 16,3 C 76 % 1021,3 hPa 0,0 l/m 0,5 km/h (0 Bft) S 180 12,1 C 16,8 C 0,0 km/h (0 Bft)
08.09.2013 19:10 16,3 C 77 % 1021,3 hPa 0,0 l/m 0,3 km/h (0 Bft) O-NO 67 12,3 C 16,7 C 0,0 km/h (0 Bft)
08.09.2013 19:15 16,3 C 77 % 1021,3 hPa 0,0 l/m 0,0 km/h (0 Bft) O 90 12,3 C 16,7 C 0,0 km/h (0 Bft)
08.09.2013 19:20 16,2 C 77 % 1021,1 hPa 0,0 l/m 0,0 km/h (0 Bft) SO 135 12,2 C 16,6 C 0,0 km/h (0 Bft)
08.09.2013 19:25 16,2 C 77 % 1021,1 hPa 0,0 l/m 0,3 km/h (0 Bft) S 180 12,2 C 16,6 C 0,0 km/h (0 Bft)
08.09.2013 19:30 16,1 C 77 % 1021,1 hPa 0,0 l/m 0,5 km/h (0 Bft) S 180 12,1 C 16,5 C 0,0 km/h (0 Bft)
08.09.2013 19:35 16,1 C 77 % 1021,1 hPa 0,0 l/m 0,3 km/h (0 Bft) SO 135 12,1 C 16,4 C 1,8 km/h (1 Bft)
08.09.2013 19:40 16,1 C 78 % 1020,9 hPa 0,0 l/m 0,6 km/h (0 Bft) S-SO 157 12,3 C 16,4 C 2,9 km/h (1 Bft)
08.09.2013 19:45 16,1 C 78 % 1020,9 hPa 0,0 l/m 1,3 km/h (1 Bft) O 90 12,3 C 16,4 C 3,2 km/h (1 Bft)
08.09.2013 19:50 16,0 C 78 % 1020,9 hPa 0,0 l/m 1,8 km/h (1 Bft) O-SO 112 12,2 C 16,4 C 0,0 km/h (0 Bft)
08.09.2013 19:55 16,0 C 78 % 1020,9 hPa 0,0 l/m 1,1 km/h (1 Bft) SO 135 12,2 C 16,3 C 4,2 km/h (1 Bft)
08.09.2013 20:00 16,0 C 79 % 1020,8 hPa 0,0 l/m 0,8 km/h (0 Bft) S 180 12,4 C 16,2 C 1,9 km/h (1 Bft)
08.09.2013 20:05 15,9 C 80 % 1020,8 hPa 0,0 l/m 2,3 km/h (1 Bft) S-SW 202 12,5 C 15,8 C 6,1 km/h (2 Bft)
08.09.2013 20:10 15,7 C 81 % 1020,8 hPa 0,0 l/m 2,7 km/h (1 Bft) W-SW 247 12,4 C 15,6 C 3,7 km/h (1 Bft)
08.09.2013 20:15 15,6 C 82 % 1020,8 hPa 0,0 l/m 3,2 km/h (1 Bft) S 180 12,5 C 15,2 C 8,2 km/h (2 Bft)
08.09.2013 20:20 15,5 C 83 % 1020,9 hPa 0,0 l/m 3,1 km/h (1 Bft) S 180 12,6 C 15,2 C 2,6 km/h (1 Bft)
08.09.2013 20:25 15,4 C 83 % 1020,9 hPa 0,0 l/m 3,1 km/h (1 Bft) S-SW 202 12,5 C 15,0 C 2,3 km/h (1 Bft)
08.09.2013 20:30 15,3 C 83 % 1020,9 hPa 0,0 l/m 2,4 km/h (1 Bft) S-SW 202 12,4 C 15,0 C 0,0 km/h (0 Bft)
08.09.2013 20:35 15,2 C 84 % 1020,9 hPa 0,0 l/m 1,3 km/h (1 Bft) S 180 12,5 C 14,8 C 1,6 km/h (1 Bft)
08.09.2013 20:40 15,2 C 84 % 1021,0 hPa 0,0 l/m 0,6 km/h (0 Bft) W-SW 247 12,5 C 14,8 C 0,0 km/h (0 Bft)
08.09.2013 20:45 15,0 C 84 % 1021,0 hPa 0,0 l/m 0,2 km/h (0 Bft) W-SW 247 12,3 C 14,7 C 0,0 km/h (0 Bft)
08.09.2013 20:50 14,8 C 85 % 1021,0 hPa 0,0 l/m 0,0 km/h (0 Bft) S 180 12,3 C 14,6 C 0,0 km/h (0 Bft)
08.09.2013 20:55 14,7 C 85 % 1021,0 hPa 0,0 l/m 0,2 km/h (0 Bft) S-SW 202 12,2 C 14,6 C 0,0 km/h (0 Bft)
08.09.2013 21:00 14,7 C 86 % 1020,9 hPa 0,0 l/m 0,2 km/h (0 Bft) O 90 12,4 C 14,5 C 0,0 km/h (0 Bft)
08.09.2013 21:05 14,6 C 86 % 1020,9 hPa 0,0 l/m 0,3 km/h (0 Bft) S 180 12,3 C 14,4 C 2,9 km/h (1 Bft)
08.09.2013 21:10 14,5 C 86 % 1020,9 hPa 0,0 l/m 0,8 km/h (0 Bft) O-SO 112 12,2 C 14,4 C 0,0 km/h (0 Bft)
08.09.2013 21:15 14,5 C 88 % 1020,9 hPa 0,0 l/m 0,6 km/h (0 Bft) S-SO 157 12,5 C 14,4 C 0,0 km/h (0 Bft)
08.09.2013 21:20 14,5 C 89 % 1020,8 hPa 0,0 l/m 0,8 km/h (0 Bft) S-SW 202 12,7 C 14,3 C 2,7 km/h (1 Bft)
08.09.2013 21:25 14,3 C 90 % 1020,8 hPa 0,0 l/m 0,8 km/h (0 Bft) O-SO 112 12,7 C 14,3 C 0,0 km/h (0 Bft)
08.09.2013 21:30 14,3 C 90 % 1020,8 hPa 0,0 l/m 0,3 km/h (0 Bft) O 90 12,7 C 14,2 C 0,0 km/h (0 Bft)
08.09.2013 21:35 14,2 C 91 % 1020,8 hPa 0,0 l/m 0,0 km/h (0 Bft) O 90 12,8 C 14,2 C 0,0 km/h (0 Bft)
08.09.2013 21:40 14,2 C 91 % 1020,6 hPa 0,0 l/m 0,0 km/h (0 Bft) O 90 12,8 C 14,2 C 0,0 km/h (0 Bft)
08.09.2013 21:45 14,3 C 91 % 1020,6 hPa 0,0 l/m 0,2 km/h (0 Bft) S-SO 157 12,8 C 14,2 C 3,7 km/h (1 Bft)
08.09.2013 21:50 14,3 C 92 % 1020,6 hPa 0,7 l/m 0,5 km/h (0 Bft) SO 135 13,0 C 14,2 C 2,3 km/h (1 Bft)
08.09.2013 21:55 14,2 C 92 % 1020,6 hPa 0,7 l/m 1,3 km/h (1 Bft) S-SO 157 12,9 C 14,2 C 4,7 km/h (1 Bft)
08.09.2013 22:00 14,2 C 92 % 1020,8 hPa 0,0 l/m 2,3 km/h (1 Bft) W-NW 292 12,9 C 14,2 C 2,6 km/h (1 Bft)
08.09.2013 22:05 14,1 C 92 % 1020,8 hPa 0,7 l/m 2,7 km/h (1 Bft) SO 135 12,8 C 14,2 C 3,4 km/h (1 Bft)
08.09.2013 22:10 14,1 C 92 % 1020,8 hPa 0,0 l/m 1,8 km/h (1 Bft) W-SW 247 12,8 C 14,2 C 0,0 km/h (0 Bft)
08.09.2013 22:15 14,1 C 93 % 1020,8 hPa 0,0 l/m 1,4 km/h (1 Bft) S-SO 157 13,0 C 14,2 C 4,5 km/h (1 Bft)
08.09.2013 22:20 14,1 C 93 % 1020,6 hPa 0,7 l/m 3,1 km/h (1 Bft) S-SO 157 13,0 C 14,2 C 9,7 km/h (2 Bft)
08.09.2013 22:25 14,0 C 93 % 1020,6 hPa 0,7 l/m 5,5 km/h (1 Bft) O-SO 112 12,9 C 14,1 C 4,0 km/h (1 Bft)
08.09.2013 22:30 13,9 C 93 % 1020,6 hPa 0,0 l/m 4,8 km/h (1 Bft) S 180 12,8 C 14,0 C 3,4 km/h (1 Bft)
08.09.2013 22:35 13,8 C 93 % 1020,6 hPa 0,7 l/m 2,7 km/h (1 Bft) S 180 12,7 C 13,9 C 0,0 km/h (0 Bft)
08.09.2013 22:40 13,7 C 93 % 1020,6 hPa 0,0 l/m 3,2 km/h (1 Bft) S 180 12,6 C 13,8 C 6,6 km/h (2 Bft)
08.09.2013 22:45 13,7 C 93 % 1020,6 hPa 0,0 l/m 5,6 km/h (1 Bft) S 180 12,6 C 13,8 C 4,3 km/h (1 Bft)
08.09.2013 22:50 13,6 C 93 % 1020,6 hPa 0,0 l/m 6,1 km/h (2 Bft) W 270 12,5 C 13,7 C 6,1 km/h (2 Bft)
08.09.2013 22:55 13,5 C 93 % 1020,6 hPa 0,0 l/m 6,0 km/h (2 Bft) S 180 12,4 C 13,6 C 6,4 km/h (2 Bft)
08.09.2013 23:00 13,4 C 93 % 1020,7 hPa 0,0 l/m 5,8 km/h (2 Bft) S 180 12,3 C 13,6 C 9,3 km/h (2 Bft)
08.09.2013 23:05 13,4 C 93 % 1020,7 hPa 0,0 l/m 5,0 km/h (1 Bft) S 180 12,3 C 13,5 C 7,6 km/h (2 Bft)
08.09.2013 23:10 13,3 C 93 % 1020,7 hPa 0,0 l/m 5,1 km/h (1 Bft) S-SO 157 12,2 C 13,4 C 4,2 km/h (1 Bft)
08.09.2013 23:15 13,3 C 93 % 1020,7 hPa 0,7 l/m 3,9 km/h (1 Bft) N-NW 337 12,2 C 13,4 C 0,0 km/h (0 Bft)
08.09.2013 23:20 13,3 C 93 % 1020,2 hPa 0,0 l/m 1,9 km/h (1 Bft) S 180 12,2 C 13,4 C 0,0 km/h (0 Bft)
08.09.2013 23:25 13,2 C 93 % 1020,2 hPa 0,0 l/m 1,8 km/h (1 Bft) O-SO 112 12,1 C 13,4 C 5,0 km/h (1 Bft)
08.09.2013 23:30 13,2 C 93 % 1020,2 hPa 0,0 l/m 2,6 km/h (1 Bft) O-NO 67 12,1 C 13,3 C 4,5 km/h (1 Bft)
08.09.2013 23:35 13,1 C 93 % 1020,2 hPa 0,0 l/m 1,6 km/h (1 Bft) SO 135 12,0 C 13,2 C 5,5 km/h (1 Bft)
08.09.2013 23:40 13,1 C 94 % 1020,4 hPa 0,0 l/m 1,6 km/h (1 Bft) SO 135 12,2 C 13,2 C 4,0 km/h (1 Bft)
08.09.2013 23:45 13,1 C 94 % 1020,4 hPa 0,0 l/m 3,4 km/h (1 Bft) S-SW 202 12,2 C 13,2 C 7,9 km/h (2 Bft)
08.09.2013 23:50 13,1 C 94 % 1020,4 hPa 0,0 l/m 3,5 km/h (1 Bft) SO 135 12,2 C 13,2 C 3,2 km/h (1 Bft)
08.09.2013 23:55 13,1 C 94 % 1020,4 hPa 0,7 l/m 1,9 km/h (1 Bft) N-NO 22 12,2 C 13,2 C 0,0 km/h (0 Bft)
_ Min-Zeit 23:55 11:15 03:15 - 21:40 - - 11:25 23:55 23:55
Minimum _ 13,1 C 41 % 1018,1 hPa - 0,0 km/h (0 Bft) - - 9,8 C 13,2 C 0,0 km/h (0 Bft)
_ Max-Zeit 12:20 23:55 11:35 23:55 04:55 - - 03:35 12:25 04:30
Maximum _ 25,1 C 94 % 1023,5 hPa 0,7 l/m 12,9 km/h
S-SW (3 Bft)
- - 14,0 C 27,1 C 25,1 km/h
S (4 Bft)
Durchschnitt _ 17,4 C 74 % 1021,0 hPa #5,5 l/m 2,9 km/h (1 Bft) S - 12,3 C 17,7 C 3,9 km/h (1 Bft)